This demonstration page uses our WeatherBlox Daily Observations layout. Learn more.

Left ArrowRight Arrow

44.8408, -93.29828

Hourly Observations for June 4, 2017

Temp ( °F °C ) Dew Point ( °F °C ) Humidity (%) Winds ( mph kmh ) Pressure ( in mb ) Visibility ( mi km ) Precip ( " mm )
12:53 am 00:53 Clear 72 22.2 55 12.8 55 55 NW 7 11 29.85 1011 10 16 0.00 0.00
1:53 am 01:53 Clear 69 20.6 51 10.6 53 53 NNW 7 11 29.86 1011 10 16 0.00 0.00
2:53 am 02:53 Clear 68 20 49 9.4 51 51 NNW 6 9 29.86 1011 10 16 0.00 0.00
3:53 am 03:53 Clear 65 18.3 48 8.9 54 54 NW 6 9 29.86 1011 10 16 0.00 0.00
4:53 am 04:53 Clear 65 18.3 49 9.4 56 56 WSW 3 6 29.86 1011 10 16 0.00 0.00
5:53 am 05:53 Sunny 63 17.2 49 9.4 60 60 Calm 29.87 1011 10 16 0.00 0.00
6:53 am 06:53 Sunny 65 18.3 50 10 59 59 Calm 29.87 1012 10 16 0.00 0.00
7:53 am 07:53 Sunny 69 20.6 53 11.7 57 57 S 3 6 29.86 1011 10 16 0.00 0.00
8:53 am 08:53 Sunny 76 24.4 50 10 40 40 SW 5 7 29.85 1011 10 16 0.00 0.00
9:53 am 09:53 Sunny 82 27.8 45 7.2 27 27 NW 10 17 29.85 1011 10 16 0.00 0.00
10:53 am 10:53 Sunny 84 28.9 42 5.6 23 23 WNW 10 17 29.85 1011 10 16 0.00 0.00
11:53 am 11:53 Sunny 87 30.6 41 5 20 20 NW 15 24 29.83 1010 10 16 0.00 0.00
12:53 pm 12:53 Sunny 87 30.6 40 4.4 19 19 NW 13 20 29.82 1010 10 16 0.00 0.00
1:53 pm 13:53 Sunny 87 30.6 38 3.3 18 18 W 13 20 29.81 1010 10 16 0.00 0.00
2:53 pm 14:53 Sunny 89 31.7 40 4.4 18 18 WNW 17 28 29.79 1009 10 16 0.00 0.00
3:53 pm 15:53 Mostly Sunny 89 31.7 39 3.9 17 17 W 16 26 29.77 1008 10 16 0.00 0.00
4:53 pm 16:53 Sunny 90 32.2 38 3.3 16 16 WNW 16 26 29.76 1008 10 16 0.00 0.00
5:53 pm 17:53 Sunny 88 31.1 40 4.4 18 18 NNW 14 22 29.75 1008 10 16 0.00 0.00
6:53 pm 18:53 Sunny 87 30.6 40 4.4 19 19 NNW 18 30 29.75 1008 10 16 0.00 0.00
7:53 pm 19:53 Sunny 83 28.3 43 6.1 24 24 NNW 16 26 29.77 1008 10 16 0.00 0.00
8:53 pm 20:53 Sunny 80 26.7 45 7.2 29 29 N 9 15 29.78 1008 10 16 0.00 0.00
9:53 pm 21:53 Clear 77 25 49 9.4 37 37 N 9 15 29.80 1009 10 16 0.00 0.00
10:53 pm 22:53 Clear 74 23.3 51 10.6 45 45 NE 15 24 29.83 1010 10 16 0.00 0.00
11:53 pm 23:53 Clear 72 22.2 51 10.6 48 48 NE 12 19 29.85 1011 10 16 0.00 0.00

Powered by AerisWeather